When you browse on this site, cookies collect data to enhance your experience and personalize the content and advertising you see.
Visit our Privacy Policy to learn more. By continuing to use the site, you agree to this use of cookies and data.
  • In Spain
  • List of Countries
  • For 7 days
  • Water Temperature
  • Weather Map
  • Weather Widgets
  • user-avatar
    Login

    Hourly Weather Lebedin

    Today, 3 June, Wednesday

    Time Temperature Precipitation Wind Pressure Humidity
    00:00 +10°C° 0 mm 1 mps 745 mmHg 86%
    01:00 +10°C° 0 mm 1 mps 745 mmHg 87%
    02:00 +10°C° 0 mm 1 mps 745 mmHg 88%
    03:00 +10°C° 0 mm 1 mps 745 mmHg 89%
    04:00 +10°C° 0 mm 1 mps 744 mmHg 90%
    05:00 +11°C° 0 mm 1 mps 744 mmHg 90%
    06:00 +12°C° 0 mm 1 mps 744 mmHg 85%
    07:00 +14°C° 0 mm 1 mps 745 mmHg 80%
    08:00 +16°C° 0 mm 1 mps 745 mmHg 75%
    09:00 +18°C° 0.1 mm 1 mps 744 mmHg 70%
    10:00 +19°C° 0.1 mm 1 mps 744 mmHg 66%
    11:00 +20°C° 0.1 mm 1 mps 744 mmHg 62%
    12:00 +20°C° 0.5 mm 1 mps 744 mmHg 63%
    13:00 +20°C° 0.5 mm 1 mps 744 mmHg 64%
    14:00 +19°C° 0.5 mm 2 mps 744 mmHg 66%
    15:00 +20°C° 0.6 mm 1 mps 744 mmHg 68%
    16:00 +19°C° 0.6 mm 1 mps 743 mmHg 69%
    17:00 +19°C° 0.6 mm 1 mps 743 mmHg 71%
    18:00 +18°C° 0.1 mm 1 mps 743 mmHg 75%
    19:00 +15°C° 0.1 mm 1 mps 743 mmHg 79%
    20:00 +13°C° 0.1 mm 0 mps 743 mmHg 84%
    21:00 +13°C° 0.2 mm 1 mps 743 mmHg 85%
    22:00 +13°C° 0.2 mm 1 mps 743 mmHg 87%
    23:00 +13°C° 0.2 mm 1 mps 742 mmHg 89%

    Tomorrow, 4 June, Thursday

    Time Temperature Precipitation Wind Pressure Humidity
    00:00 +13°C° 0.7 mm 1 mps 743 mmHg 91%
    01:00 +13°C° 0.7 mm 2 mps 743 mmHg 93%
    02:00 +12°C° 0.7 mm 2 mps 743 mmHg 96%
    03:00 +12°C° 0.5 mm 2 mps 743 mmHg 96%
    04:00 +12°C° 0.5 mm 2 mps 743 mmHg 96%
    05:00 +12°C° 0.5 mm 2 mps 743 mmHg 96%
    06:00 +13°C° 0.2 mm 2 mps 743 mmHg 95%
    07:00 +12°C° 0.2 mm 3 mps 743 mmHg 93%
    08:00 +12°C° 0.2 mm 3 mps 744 mmHg 91%
    09:00 +14°C° 0.4 mm 4 mps 744 mmHg 86%
    10:00 +15°C° 0.4 mm 4 mps 744 mmHg 82%
    11:00 +17°C° 0.4 mm 5 mps 744 mmHg 77%
    12:00 +17°C° 0.5 mm 5 mps 744 mmHg 75%
    13:00 +19°C° 0.5 mm 5 mps 744 mmHg 73%
    14:00 +19°C° 0.5 mm 6 mps 744 mmHg 71%
    15:00 +19°C° 0.3 mm 5 mps 744 mmHg 73%
    16:00 +19°C° 0.3 mm 5 mps 744 mmHg 76%
    17:00 +19°C° 0.3 mm 4 mps 744 mmHg 78%
    18:00 +17°C° 0.4 mm 4 mps 744 mmHg 82%
    19:00 +15°C° 0.4 mm 4 mps 744 mmHg 85%
    20:00 +14°C° 0.4 mm 4 mps 744 mmHg 88%
    21:00 +13°C° 0.1 mm 5 mps 745 mmHg 89%
    22:00 +13°C° 0.1 mm 5 mps 745 mmHg 89%
    23:00 +13°C° 0.1 mm 5 mps 745 mmHg 90%

    Day after tomorrow, 5 June, Friday

    Time Temperature Precipitation Wind Pressure Humidity
    00:00 +12°C° 0 mm 5 mps 745 mmHg 91%
    01:00 +12°C° 0 mm 5 mps 745 mmHg 91%
    02:00 +10°C° 0 mm 5 mps 745 mmHg 92%
    03:00 +10°C° 0 mm 5 mps 745 mmHg 92%
    04:00 +10°C° 0 mm 5 mps 745 mmHg 91%
    05:00 +10°C° 0 mm 5 mps 745 mmHg 91%
    06:00 +12°C° 0.4 mm 5 mps 745 mmHg 92%
    07:00 +13°C° 0.4 mm 6 mps 746 mmHg 92%
    08:00 +13°C° 0.4 mm 6 mps 746 mmHg 93%
    09:00 +14°C° 1.5 mm 6 mps 746 mmHg 93%
    10:00 +14°C° 1.5 mm 6 mps 746 mmHg 93%
    11:00 +15°C° 1.5 mm 6 mps 746 mmHg 92%
    12:00 +15°C° 0.6 mm 6 mps 746 mmHg 93%
    13:00 +15°C° 0.6 mm 6 mps 746 mmHg 93%
    14:00 +15°C° 0.6 mm 5 mps 746 mmHg 94%
    15:00 +16°C° 0.9 mm 5 mps 746 mmHg 91%
    16:00 +19°C° 0.9 mm 5 mps 746 mmHg 89%
    17:00 +20°C° 0.9 mm 4 mps 745 mmHg 86%
    18:00 +19°C° 0.9 mm 4 mps 746 mmHg 87%
    19:00 +19°C° 0.9 mm 4 mps 746 mmHg 88%
    20:00 +18°C° 0.9 mm 4 mps 746 mmHg 90%
    21:00 +18°C° 0.5 mm 4 mps 746 mmHg 90%
    22:00 +18°C° 0.5 mm 4 mps 746 mmHg 91%
    23:00 +16°C° 0.5 mm 5 mps 747 mmHg 91%

    6 June, Saturday

    Time Temperature Precipitation Wind Pressure Humidity
    00:00 +15°C° 0.1 mm 4 mps 747 mmHg 92%
    01:00 +15°C° 0.1 mm 4 mps 747 mmHg 93%
    02:00 +14°C° 0.1 mm 4 mps 747 mmHg 94%
    03:00 +14°C° 0 mm 4 mps 747 mmHg 94%
    04:00 +14°C° 0 mm 4 mps 747 mmHg 94%
    05:00 +14°C° 0 mm 4 mps 748 mmHg 94%
    06:00 +15°C° 0 mm 5 mps 748 mmHg 91%
    07:00 +16°C° 0 mm 5 mps 748 mmHg 89%
    08:00 +19°C° 0 mm 6 mps 749 mmHg 86%
    09:00 +20°C° 0 mm 6 mps 749 mmHg 82%
    10:00 +21°C° 0 mm 6 mps 749 mmHg 77%
    11:00 +23°C° 0 mm 7 mps 750 mmHg 73%
    12:00 +24°C° 0 mm 7 mps 750 mmHg 71%
    13:00 +24°C° 0 mm 6 mps 750 mmHg 70%
    14:00 +26°C° 0 mm 6 mps 750 mmHg 68%
    15:00 +26°C° 0 mm 5 mps 750 mmHg 71%
    16:00 +25°C° 0 mm 5 mps 750 mmHg 74%
    17:00 +25°C° 0 mm 4 mps 750 mmHg 78%
    18:00 +23°C° 0 mm 4 mps 750 mmHg 79%
    19:00 +21°C° 0 mm 3 mps 750 mmHg 81%
    20:00 +19°C° 0 mm 3 mps 750 mmHg 83%
    21:00 +19°C° 0 mm 4 mps 751 mmHg 83%
    22:00 +18°C° 0 mm 4 mps 751 mmHg 84%
    23:00 +17°C° 0 mm 4 mps 751 mmHg 84%

    7 June, Sunday

    Time Temperature Precipitation Wind Pressure Humidity
    00:00 +17°C° 0 mm 4 mps 751 mmHg 84%
    01:00 +16°C° 0 mm 3 mps 751 mmHg 84%
    02:00 +14°C° 0 mm 3 mps 751 mmHg 84%
    03:00 +14°C° 0 mm 3 mps 752 mmHg 85%
    04:00 +14°C° 0 mm 3 mps 752 mmHg 85%
    05:00 +14°C° 0 mm 3 mps 752 mmHg 85%
    06:00 +17°C° 0 mm 4 mps 752 mmHg 83%
    07:00 +18°C° 0 mm 4 mps 752 mmHg 81%
    08:00 +20°C° 0 mm 5 mps 753 mmHg 79%
    09:00 +22°C° 0 mm 5 mps 753 mmHg 76%
    10:00 +23°C° 0 mm 5 mps 753 mmHg 74%
    11:00 +26°C° 0 mm 5 mps 753 mmHg 71%
    12:00 +26°C° 0 mm 5 mps 753 mmHg 70%
    13:00 +27°C° 0 mm 5 mps 753 mmHg 69%
    14:00 +27°C° 0 mm 5 mps 753 mmHg 67%
    15:00 +27°C° 0 mm 4 mps 753 mmHg 71%
    16:00 +27°C° 0 mm 4 mps 752 mmHg 74%
    17:00 +27°C° 0 mm 3 mps 752 mmHg 78%
    18:00 +25°C° 0 mm 3 mps 752 mmHg 81%
    19:00 +22°C° 0 mm 3 mps 752 mmHg 84%
    20:00 +21°C° 0 mm 3 mps 752 mmHg 87%
    21:00 +20°C° 0 mm 3 mps 752 mmHg 88%
    22:00 +20°C° 0 mm 3 mps 752 mmHg 89%
    23:00 +19°C° 0 mm 3 mps 753 mmHg 90%

    8 June, Monday

    Time Temperature Precipitation Wind Pressure Humidity
    00:00 +18°C° 0 mm 3 mps 753 mmHg 90%
    01:00 +18°C° 0 mm 3 mps 753 mmHg 90%
    02:00 +17°C° 0 mm 3 mps 753 mmHg 90%
    03:00 +18°C° 0 mm 3 mps 753 mmHg 90%
    04:00 +18°C° 0 mm 3 mps 753 mmHg 90%
    05:00 +18°C° 0 mm 3 mps 753 mmHg 90%
    06:00 +20°C° 0 mm 3 mps 753 mmHg 86%
    07:00 +21°C° 0 mm 4 mps 753 mmHg 83%
    08:00 +23°C° 0 mm 4 mps 753 mmHg 79%
    09:00 +25°C° 0 mm 5 mps 753 mmHg 75%
    10:00 +26°C° 0 mm 5 mps 753 mmHg 71%
    11:00 +27°C° 0 mm 5 mps 753 mmHg 68%
    12:00 +28°C° 0 mm 5 mps 753 mmHg 67%
    13:00 +28°C° 0 mm 5 mps 753 mmHg 66%
    14:00 +28°C° 0 mm 5 mps 752 mmHg 65%
    15:00 +28°C° 0 mm 4 mps 752 mmHg 68%
    16:00 +28°C° 0 mm 3 mps 752 mmHg 71%
    17:00 +28°C° 0 mm 3 mps 752 mmHg 75%
    18:00 +26°C° 0 mm 3 mps 752 mmHg 78%
    19:00 +24°C° 0 mm 3 mps 752 mmHg 81%
    20:00 +22°C° 0 mm 3 mps 752 mmHg 85%
    21:00 +21°C° 0 mm 3 mps 752 mmHg 86%
    22:00 +20°C° 0 mm 3 mps 752 mmHg 87%
    23:00 +20°C° 0 mm 3 mps 752 mmHg 89%
    Show more